AFR842 LFPG-TFFR

Flight info

Callsign AFR842
Flight time N/A
Altitude 32000
Route LGL UN491 UPALO/N0480F330 UN585 FEJAC DCT BADUR DCT REGHI/M083F320 DCT ETIKI DCT 47N015W 46N020W 40N030W/M083F340 33N040W 29N045W 25N050W/M083F360 21N055W DCT BNJEE/N0482F360 DCT BOSET BOSET2A
Aircraft B77W/H-SDE1E2E3FGHIJ2J3J4J5M1RWXY/LB1D1

Departure

Time N/A
Airport Charles de Gaulle International Airport (LFPG)

Arrival

Time 2026-05-06 03:51
Airport Maryse Condé International Airport (TFFR)
Time Latitude Longitude Altitude Speed Heading
2026-05-06 03:25 17.59201 -60.36565 36109 ft 483 kts 221°
2026-05-06 03:26 17.54077 -60.41142 36104 ft 482 kts 221°
2026-05-06 03:26 17.50948 -60.43935 36124 ft 480 kts 221°
2026-05-06 03:27 17.45828 -60.48502 36105 ft 482 kts 221°
2026-05-06 03:27 17.40707 -60.53066 36098 ft 483 kts 221°
2026-05-06 03:28 17.35620 -60.57597 35939 ft 474 kts 221°
2026-05-06 03:28 17.33102 -60.59839 35077 ft 476 kts 221°
2026-05-06 03:28 17.30594 -60.62070 34119 ft 479 kts 220°
2026-05-06 03:29 17.28049 -60.64334 33281 ft 479 kts 220°
2026-05-06 03:29 17.25492 -60.66607 32477 ft 479 kts 220°
2026-05-06 03:29 17.22991 -60.68864 31835 ft 476 kts 223°
2026-05-06 03:29 17.20741 -60.71372 31430 ft 468 kts 229°
2026-05-06 03:30 17.18625 -60.73943 30953 ft 471 kts 229°
2026-05-06 03:30 17.16457 -60.76591 30412 ft 482 kts 229°
2026-05-06 03:30 17.14273 -60.79259 29849 ft 480 kts 229°
2026-05-06 03:30 17.12138 -60.81865 29315 ft 475 kts 229°
2026-05-06 03:31 17.09996 -60.84478 28769 ft 470 kts 229°
2026-05-06 03:31 17.07866 -60.87076 28247 ft 466 kts 229°
2026-05-06 03:31 17.05788 -60.89608 27733 ft 461 kts 229°
2026-05-06 03:31 17.03692 -60.92162 27187 ft 458 kts 229°
2026-05-06 03:32 17.01631 -60.94671 26645 ft 455 kts 229°
2026-05-06 03:32 16.99597 -60.97146 26105 ft 452 kts 229°
2026-05-06 03:32 16.97553 -60.99634 25558 ft 449 kts 229°
2026-05-06 03:32 16.95537 -61.02086 25021 ft 446 kts 229°
2026-05-06 03:33 16.93521 -61.04536 24471 ft 443 kts 229°
2026-05-06 03:33 16.91506 -61.06985 23922 ft 440 kts 229°
2026-05-06 03:33 16.89530 -61.09386 23383 ft 438 kts 229°
2026-05-06 03:33 16.87537 -61.11807 22830 ft 435 kts 229°
2026-05-06 03:34 16.85573 -61.14192 22291 ft 433 kts 229°
2026-05-06 03:34 16.83633 -61.16545 21762 ft 431 kts 230°
2026-05-06 03:34 16.81672 -61.18925 21215 ft 429 kts 230°
2026-05-06 03:34 16.79742 -61.21266 20665 ft 428 kts 230°
2026-05-06 03:35 16.77819 -61.23597 20115 ft 426 kts 230°
2026-05-06 03:35 16.75885 -61.25941 19562 ft 424 kts 231°
2026-05-06 03:35 16.73957 -61.28276 19009 ft 423 kts 231°
2026-05-06 03:35 16.72041 -61.30597 18456 ft 421 kts 231°
2026-05-06 03:36 16.70141 -61.32898 17911 ft 419 kts 231°
2026-05-06 03:36 16.68235 -61.35204 17357 ft 418 kts 231°
2026-05-06 03:36 16.66421 -61.37400 16820 ft 416 kts 231°
2026-05-06 03:36 16.64538 -61.39677 16272 ft 413 kts 231°
2026-05-06 03:37 16.62661 -61.41948 15731 ft 411 kts 231°
2026-05-06 03:37 16.60780 -61.44221 15188 ft 408 kts 230°
2026-05-06 03:37 16.58950 -61.46433 14638 ft 406 kts 230°
2026-05-06 03:37 16.57112 -61.48653 14039 ft 405 kts 230°
2026-05-06 03:38 16.55257 -61.50894 13467 ft 402 kts 230°
2026-05-06 03:38 16.53468 -61.53054 12949 ft 394 kts 230°
2026-05-06 03:38 16.51683 -61.55208 12444 ft 387 kts 230°
2026-05-06 03:38 16.49942 -61.57312 11942 ft 380 kts 231°
2026-05-06 03:39 16.48459 -61.59562 11440 ft 378 kts 242°
2026-05-06 03:39 16.47442 -61.62082 10976 ft 374 kts 254°
2026-05-06 03:39 16.46888 -61.64681 10728 ft 360 kts 260°
2026-05-06 03:39 16.46452 -61.67172 10600 ft 343 kts 260°
2026-05-06 03:40 16.46046 -61.69546 10539 ft 325 kts 261°
2026-05-06 03:40 16.45668 -61.71826 10542 ft 309 kts 261°
2026-05-06 03:40 16.45322 -61.73985 10375 ft 301 kts 261°
2026-05-06 03:40 16.44988 -61.76100 10113 ft 295 kts 261°
2026-05-06 03:41 16.44660 -61.78197 9831 ft 292 kts 261°
2026-05-06 03:41 16.44333 -61.80291 9480 ft 292 kts 261°
2026-05-06 03:41 16.44008 -61.82368 9121 ft 293 kts 261°
2026-05-06 03:41 16.43679 -61.84473 8761 ft 293 kts 261°
2026-05-06 03:42 16.43351 -61.86570 8403 ft 294 kts 261°
2026-05-06 03:42 16.43025 -61.88650 8053 ft 294 kts 261°
2026-05-06 03:42 16.42443 -61.90676 7682 ft 292 kts 239°
2026-05-06 03:42 16.41136 -61.92244 7335 ft 287 kts 213°
2026-05-06 03:43 16.39352 -61.93072 7001 ft 279 kts 188°
2026-05-06 03:43 16.37426 -61.93259 6680 ft 275 kts 177°
2026-05-06 03:43 16.35579 -61.92954 6376 ft 267 kts 153°
2026-05-06 03:43 16.34107 -61.91850 6084 ft 258 kts 127°
2026-05-06 03:44 16.33301 -61.90209 5755 ft 254 kts 102°
2026-05-06 03:44 16.32978 -61.88427 5507 ft 250 kts 98°
2026-05-06 03:44 16.32686 -61.86659 5339 ft 243 kts 99°
2026-05-06 03:44 16.32390 -61.84986 5317 ft 230 kts 99°
2026-05-06 03:45 16.32096 -61.83371 5205 ft 219 kts 100°
2026-05-06 03:45 16.31824 -61.81882 5170 ft 205 kts 100°
2026-05-06 03:45 16.31558 -61.80433 4909 ft 203 kts 99°
2026-05-06 03:45 16.31315 -61.78999 4750 ft 200 kts 99°
2026-05-06 03:46 16.31067 -61.77554 4599 ft 207 kts 99°
2026-05-06 03:46 16.30801 -61.76092 4325 ft 206 kts 100°
2026-05-06 03:46 16.30529 -61.74628 4056 ft 205 kts 100°
2026-05-06 03:46 16.30254 -61.73166 3777 ft 204 kts 100°
2026-05-06 03:47 16.29984 -61.71725 3508 ft 202 kts 100°
2026-05-06 03:47 16.29717 -61.70301 3235 ft 201 kts 100°
2026-05-06 03:47 16.29453 -61.68881 2964 ft 197 kts 100°
2026-05-06 03:47 16.29199 -61.67518 2697 ft 184 kts 99°
2026-05-06 03:48 16.28964 -61.66253 2449 ft 171 kts 99°
2026-05-06 03:48 16.28746 -61.65080 2215 ft 161 kts 99°
2026-05-06 03:48 16.28545 -61.64000 2002 ft 146 kts 99°
2026-05-06 03:48 16.28354 -61.62969 1801 ft 144 kts 99°
2026-05-06 03:49 16.28164 -61.61948 1600 ft 144 kts 99°
2026-05-06 03:49 16.27979 -61.60918 1363 ft 146 kts 99°
2026-05-06 03:49 16.27785 -61.59877 1101 ft 145 kts 101°
2026-05-06 03:49 16.27586 -61.58831 912 ft 153 kts 99°
2026-05-06 03:50 16.27386 -61.57747 660 ft 149 kts 100°
2026-05-06 03:50 16.27187 -61.56691 480 ft 149 kts 100°
2026-05-06 03:50 16.26985 -61.55621 295 ft 154 kts 101°
2026-05-06 03:50 16.26778 -61.54523 80 ft 152 kts 101°
2026-05-06 03:51 16.26594 -61.53545 40 ft 116 kts 100°
2026-05-06 03:51 16.26472 -61.52872 39 ft 72 kts 101°
2026-05-06 03:51 16.26409 -61.52532 42 ft 30 kts 100°
2026-05-06 03:51 16.26384 -61.52396 44 ft 13 kts 100°
2026-05-06 03:52 16.26371 -61.52320 45 ft 8 kts 99°
2026-05-06 03:52 16.26382 -61.52249 46 ft 11 kts 42°
2026-05-06 03:52 16.26455 -61.52220 46 ft 10 kts 14°
2026-05-06 03:52 16.26543 -61.52203 45 ft 15 kts 11°
2026-05-06 03:53 16.26653 -61.52182 45 ft 13 kts
2026-05-06 03:53 16.26722 -61.52227 45 ft 12 kts 289°
2026-05-06 03:53 16.26742 -61.52321 43 ft 13 kts 281°
2026-05-06 03:53 16.26760 -61.52411 42 ft 12 kts 281°
2026-05-06 03:54 16.26775 -61.52496 41 ft 7 kts 280°
2026-05-06 03:54 16.26789 -61.52534 41 ft 5 kts 317°
2026-05-06 03:54 16.26833 -61.52542 41 ft 4 kts
2026-05-06 03:54 16.26863 -61.52537 41 ft 2 kts 11°
2026-05-06 03:55 16.26874 -61.52535 41 ft 0 kts 10°